User: anonymous   Login
Location: Unspecified
(0.0000°N, 0.0000°E)
Time: 05:10:05
(UTC+00:00)
Language:

Freja - Orbit

View from above orbital plane
View from above orbital plane
View from above satellite
View from above satellite

Ground track
Ground track

The orbit data is extracted from the following two-line orbital elements,

1 22161U 92064A   24165.79094079  .00001074  00000-0  40773-3 0  9992
2 22161  62.9859 331.8265 0787347 175.0791 185.8587 13.31882377536231
Epoch (UTC): 13 June 2024 18:58:57
Eccentricity: 0.0787347
inclination: 62.9859°
perigee height: 548 km
apogee height: 1731 km
right ascension of ascending node: 331.8265°
argument of perigee: 175.0791°
revolutions per day: 13.31882377
mean anomaly at epoch: 185.8587°
orbit number at epoch: 53623

The dashed part of the orbit path shows where the satellite is in the earth's shadow,  

DLR